BOX3371 LIMC-LSZH

Flight info

Callsign BOX3371
Flight time 0h 30m
Altitude 28000
Route PEPAG DCT CANNE Z651 KELIP
Aircraft B77L/H-SDE1E2E3FGHIJ2J3J4J5M1RWXY/LB1D1

Departure

Time 2026-05-05 18:14
Airport Milan Malpensa International Airport (LIMC)

Arrival

Time 2026-05-05 18:44
Airport Zürich Airport (LSZH)
Time Latitude Longitude Altitude Speed Heading
2026-05-05 17:48 45.61491 8.72012 718 ft 0 kts 259°
2026-05-05 18:03 45.61492 8.72021 722 ft 4 kts 258°
2026-05-05 18:04 45.61499 8.72058 720 ft 4 kts 252°
2026-05-05 18:04 45.61508 8.72094 720 ft 4 kts 244°
2026-05-05 18:04 45.61522 8.72126 722 ft 4 kts 221°
2026-05-05 18:04 45.61540 8.72139 720 ft 2 kts 169°
2026-05-05 18:05 45.61541 8.72139 720 ft 3 kts 169°
2026-05-05 18:07 45.61538 8.72139 720 ft 4 kts 169°
2026-05-05 18:07 45.61488 8.72153 720 ft 8 kts 169°
2026-05-05 18:07 45.61425 8.72170 716 ft 10 kts 169°
2026-05-05 18:07 45.61353 8.72190 719 ft 12 kts 168°
2026-05-05 18:08 45.61267 8.72214 718 ft 13 kts 169°
2026-05-05 18:08 45.61175 8.72239 716 ft 14 kts 169°
2026-05-05 18:08 45.61082 8.72266 715 ft 12 kts 164°
2026-05-05 18:08 45.61038 8.72356 712 ft 12 kts 92°
2026-05-05 18:09 45.61052 8.72475 710 ft 12 kts 77°
2026-05-05 18:09 45.61069 8.72593 699 ft 12 kts 79°
2026-05-05 18:09 45.61085 8.72712 703 ft 12 kts 79°
2026-05-05 18:09 45.61101 8.72831 703 ft 12 kts 79°
2026-05-05 18:10 45.61117 8.72951 714 ft 12 kts 79°
2026-05-05 18:10 45.61148 8.73061 712 ft 12 kts 44°
2026-05-05 18:10 45.61218 8.73132 715 ft 12 kts 33°
2026-05-05 18:10 45.61290 8.73200 715 ft 12 kts 34°
2026-05-05 18:11 45.61362 8.73265 715 ft 12 kts 22°
2026-05-05 18:11 45.61468 8.73252 714 ft 13 kts 349°
2026-05-05 18:11 45.61545 8.73231 714 ft 9 kts 353°
2026-05-05 18:11 45.61606 8.73246 715 ft 9 kts 34°
2026-05-05 18:12 45.61627 8.73341 712 ft 11 kts 78°
2026-05-05 18:12 45.61626 8.73449 715 ft 12 kts 119°
2026-05-05 18:12 45.61590 8.73559 714 ft 13 kts 102°
2026-05-05 18:12 45.61598 8.73682 703 ft 9 kts 77°
2026-05-05 18:13 45.61624 8.73735 699 ft 7 kts 11°
2026-05-05 18:13 45.61644 8.73732 703 ft 0 kts 349°
2026-05-05 18:13 45.61882 8.73666 715 ft 79 kts 349°
2026-05-05 18:14 45.62710 8.73436 736 ft 160 kts 349°
2026-05-05 18:14 45.63927 8.73093 1262 ft 177 kts 348°
2026-05-05 18:14 45.65122 8.72792 2313 ft 178 kts 355°
2026-05-05 18:14 45.66430 8.73041 2600 ft 206 kts 27°
2026-05-05 18:15 45.67689 8.74171 2986 ft 224 kts 36°
2026-05-05 18:15 45.69029 8.75560 3322 ft 251 kts 38°
2026-05-05 18:15 45.70456 8.77060 4056 ft 262 kts 38°
2026-05-05 18:15 45.71923 8.78661 4737 ft 271 kts 38°
2026-05-05 18:16 45.73442 8.80342 5559 ft 279 kts 39°
2026-05-05 18:16 45.74945 8.82010 6625 ft 276 kts 38°
2026-05-05 18:16 45.76489 8.83715 7396 ft 286 kts 38°
2026-05-05 18:16 45.78098 8.85449 8238 ft 288 kts 37°
2026-05-05 18:17 45.79729 8.87161 9097 ft 294 kts 36°
2026-05-05 18:17 45.81393 8.88890 9956 ft 298 kts 36°
2026-05-05 18:17 45.83085 8.90679 10588 ft 311 kts 37°
2026-05-05 18:17 45.84901 8.92611 10792 ft 339 kts 37°
2026-05-05 18:18 45.86874 8.94725 11025 ft 368 kts 37°
2026-05-05 18:18 45.88988 8.96996 11462 ft 387 kts 37°
2026-05-05 18:18 45.91176 8.99343 12235 ft 398 kts 36°
2026-05-05 18:18 45.93419 9.01747 13152 ft 403 kts 36°
2026-05-05 18:19 45.95869 9.03718 13810 ft 408 kts 16°
2026-05-05 18:19 45.98675 9.04280 14532 ft 409 kts 354°
2026-05-05 18:19 46.00537 9.03940 15110 ft 408 kts 344°
2026-05-05 18:19 46.03158 9.02457 15958 ft 402 kts 323°
2026-05-05 18:20 46.05422 9.00083 16630 ft 405 kts 318°
2026-05-05 18:20 46.07676 8.97582 17403 ft 412 kts 318°
2026-05-05 18:20 46.09987 8.95096 18249 ft 417 kts 319°
2026-05-05 18:20 46.12347 8.92622 19014 ft 422 kts 319°
2026-05-05 18:21 46.14789 8.90242 19662 ft 429 kts 326°
2026-05-05 18:21 46.17547 8.88453 20285 ft 442 kts 336°
2026-05-05 18:21 46.20561 8.87347 21011 ft 452 kts 347°
2026-05-05 18:21 46.23707 8.86836 21756 ft 457 kts 351°
2026-05-05 18:22 46.26892 8.86422 22437 ft 463 kts 351°
2026-05-05 18:22 46.30130 8.86006 23071 ft 469 kts 351°
2026-05-05 18:22 46.33394 8.85563 23684 ft 474 kts 350°
2026-05-05 18:22 46.36696 8.85094 24263 ft 478 kts 349°
2026-05-05 18:23 46.40021 8.84606 24889 ft 481 kts 349°
2026-05-05 18:23 46.43363 8.84107 25470 ft 485 kts 349°
2026-05-05 18:23 46.46699 8.83604 25970 ft 491 kts 349°
2026-05-05 18:23 46.50117 8.83083 26529 ft 495 kts 349°
2026-05-05 18:24 46.53554 8.82561 27017 ft 497 kts 349°
2026-05-05 18:24 46.57009 8.82040 27417 ft 500 kts 349°
2026-05-05 18:24 46.60488 8.81515 27726 ft 504 kts 349°
2026-05-05 18:24 46.63981 8.80989 27589 ft 503 kts 349°
2026-05-05 18:25 46.67438 8.80472 27376 ft 496 kts 349°
2026-05-05 18:25 46.69704 8.80131 27070 ft 492 kts 349°
2026-05-05 18:25 46.74239 8.79448 26228 ft 486 kts 349°
2026-05-05 18:25 46.77583 8.78942 25666 ft 480 kts 349°
2026-05-05 18:26 46.80894 8.78441 25082 ft 476 kts 350°
2026-05-05 18:26 46.84180 8.77943 24522 ft 472 kts 350°
2026-05-05 18:26 46.87391 8.77454 23973 ft 469 kts 350°
2026-05-05 18:26 46.90626 8.76959 23375 ft 466 kts 350°
2026-05-05 18:27 46.93837 8.76470 22717 ft 462 kts 350°
2026-05-05 18:27 46.97015 8.75982 22178 ft 455 kts 350°
2026-05-05 18:27 47.00149 8.75479 21605 ft 452 kts 350°
2026-05-05 18:27 47.03253 8.74974 21064 ft 447 kts 350°
2026-05-05 18:28 47.09361 8.73880 20040 ft 437 kts 348°
2026-05-05 18:28 47.12335 8.73093 19492 ft 432 kts 346°
2026-05-05 18:28 47.15276 8.72254 18975 ft 428 kts 346°
2026-05-05 18:29 47.18191 8.71433 18462 ft 424 kts 347°
2026-05-05 18:29 47.21083 8.70649 17922 ft 421 kts 347°
2026-05-05 18:29 47.23957 8.69890 17367 ft 418 kts 347°
2026-05-05 18:29 47.26795 8.69115 16837 ft 412 kts 344°
2026-05-05 18:30 47.29458 8.67752 16292 ft 401 kts 331°
2026-05-05 18:30 47.31933 8.65916 15815 ft 396 kts 329°
2026-05-05 18:30 47.34384 8.64076 15307 ft 393 kts 330°
2026-05-05 18:30 47.36842 8.62324 14815 ft 390 kts 330°
2026-05-05 18:31 47.39204 8.60515 14330 ft 384 kts 326°
2026-05-05 18:31 47.41473 8.58471 13854 ft 380 kts 324°
2026-05-05 18:31 47.43651 8.56338 13308 ft 368 kts 316°
2026-05-05 18:31 47.45241 8.53515 12821 ft 353 kts 295°
2026-05-05 18:32 47.46160 8.50226 12433 ft 341 kts 281°
2026-05-05 18:32 47.46300 8.46799 11755 ft 334 kts 256°
2026-05-05 18:32 47.45542 8.43597 11243 ft 327 kts 250°
2026-05-05 18:32 47.45277 8.40224 11042 ft 343 kts 274°
2026-05-05 18:33 47.45907 8.36772 10919 ft 353 kts 290°
2026-05-05 18:33 47.47156 8.33648 10849 ft 355 kts 304°
2026-05-05 18:33 47.48819 8.30982 10594 ft 344 kts 311°
2026-05-05 18:33 47.50494 8.28684 10388 ft 314 kts 313°
2026-05-05 18:34 47.52064 8.26639 10203 ft 287 kts 313°
2026-05-05 18:34 47.53515 8.24794 9952 ft 266 kts 313°
2026-05-05 18:34 47.54906 8.23051 9341 ft 259 kts 313°
2026-05-05 18:34 47.56276 8.21341 8639 ft 256 kts 313°
2026-05-05 18:35 47.57630 8.19650 7962 ft 253 kts 313°
2026-05-05 18:35 47.58963 8.17973 7320 ft 249 kts 314°
2026-05-05 18:35 47.60293 8.16275 7139 ft 255 kts 313°
2026-05-05 18:35 47.61633 8.14554 7017 ft 255 kts 313°
2026-05-05 18:36 47.62965 8.12833 6999 ft 251 kts 313°
2026-05-05 18:36 47.64260 8.11175 6995 ft 241 kts 316°
2026-05-05 18:36 47.65778 8.10078 6988 ft 252 kts 345°
2026-05-05 18:36 47.67520 8.10211 6835 ft 258 kts 15°
2026-05-05 18:37 47.69039 8.11573 6489 ft 258 kts 47°
2026-05-05 18:37 47.69945 8.13823 6165 ft 255 kts 71°
2026-05-05 18:37 47.70523 8.16348 6024 ft 259 kts 74°
2026-05-05 18:37 47.70752 8.18923 6048 ft 247 kts 100°
2026-05-05 18:38 47.70353 8.21339 5991 ft 238 kts 112°
2026-05-05 18:38 47.69743 8.23530 5995 ft 223 kts 129°
2026-05-05 18:38 47.68754 8.25329 6003 ft 227 kts 139°
2026-05-05 18:38 47.67651 8.26992 6004 ft 225 kts 142°
2026-05-05 18:39 47.66515 8.28583 5998 ft 224 kts 143°
2026-05-05 18:39 47.65363 8.30166 5979 ft 229 kts 143°
2026-05-05 18:39 47.64177 8.31786 5661 ft 231 kts 143°
2026-05-05 18:39 47.63020 8.33375 5353 ft 221 kts 143°
2026-05-05 18:40 47.61909 8.34899 5100 ft 217 kts 143°
2026-05-05 18:40 47.60795 8.36418 4809 ft 222 kts 142°
2026-05-05 18:40 47.59660 8.37973 4514 ft 221 kts 141°
2026-05-05 18:40 47.58564 8.39480 4199 ft 207 kts 142°
2026-05-05 18:41 47.57562 8.40853 3946 ft 185 kts 142°
2026-05-05 18:41 47.56652 8.42095 3674 ft 173 kts 142°
2026-05-05 18:41 47.55776 8.43292 3473 ft 171 kts 142°
2026-05-05 18:41 47.54912 8.44469 3240 ft 166 kts 141°
2026-05-05 18:42 47.54074 8.45613 3007 ft 161 kts 141°
2026-05-05 18:42 47.53273 8.46708 2812 ft 153 kts 141°
2026-05-05 18:42 47.52495 8.47770 2617 ft 152 kts 141°
2026-05-05 18:42 47.51722 8.48825 2413 ft 150 kts 141°
2026-05-05 18:43 47.50960 8.49864 2172 ft 148 kts 140°
2026-05-05 18:43 47.50212 8.50885 1998 ft 146 kts 138°
2026-05-05 18:43 47.49459 8.51911 1796 ft 148 kts 139°
2026-05-05 18:43 47.48705 8.52933 1584 ft 145 kts 139°
2026-05-05 18:44 47.47980 8.53929 1426 ft 138 kts 139°
2026-05-05 18:44 47.47341 8.54792 1403 ft 106 kts 137°
2026-05-05 18:44 47.46914 8.55377 1404 ft 62 kts 137°
2026-05-05 18:44 47.46669 8.55708 1409 ft 38 kts 137°
2026-05-05 18:45 47.46496 8.55899 1410 ft 17 kts 155°
2026-05-05 18:45 47.46399 8.55949 1411 ft 11 kts 166°
2026-05-05 18:45 47.46387 8.55953 1411 ft 0 kts 166°
2026-05-05 18:47 47.46351 8.55966 1413 ft 16 kts 167°
2026-05-05 18:47 47.46256 8.55996 1415 ft 13 kts 169°
2026-05-05 18:47 47.46166 8.56000 1414 ft 13 kts 185°
2026-05-05 18:48 47.46075 8.55986 1414 ft 13 kts 186°
2026-05-05 18:48 47.45984 8.55972 1416 ft 13 kts 187°
2026-05-05 18:48 47.45911 8.55939 1418 ft 8 kts 199°
2026-05-05 18:48 47.45857 8.55911 1418 ft 8 kts 200°
2026-05-05 18:49 47.45843 8.55904 1418 ft 0 kts 200°
2026-05-05 18:50 47.45838 8.55901 1418 ft 6 kts 200°
2026-05-05 18:50 47.45773 8.55876 1418 ft 11 kts 187°
2026-05-05 18:50 47.45700 8.55864 1417 ft 10 kts 186°
2026-05-05 18:51 47.45697 8.55864 1417 ft 0 kts 186°
2026-05-05 18:51 47.45696 8.55863 1417 ft 0 kts 185°
2026-05-05 18:52 47.45667 8.55855 1418 ft 8 kts 199°
2026-05-05 18:52 47.45644 8.55779 1419 ft 9 kts 275°
2026-05-05 18:52 47.45652 8.55673 1413 ft 11 kts 276°
2026-05-05 18:53 47.45661 8.55551 1407 ft 13 kts 276°
2026-05-05 18:53 47.45668 8.55457 1406 ft 7 kts 276°
2026-05-05 18:53 47.45673 8.55376 1411 ft 9 kts 276°
2026-05-05 18:53 47.45680 8.55273 1408 ft 11 kts 272°
2026-05-05 18:54 47.45627 8.55215 1407 ft 12 kts 164°
2026-05-05 18:54 47.45554 8.55265 1408 ft 12 kts 154°
2026-05-05 18:54 47.45481 8.55316 1410 ft 12 kts 156°
2026-05-05 18:54 47.45408 8.55365 1411 ft 12 kts 155°
2026-05-05 18:55 47.45335 8.55415 1413 ft 12 kts 155°
2026-05-05 18:55 47.45260 8.55466 1413 ft 12 kts 155°
2026-05-05 18:55 47.45183 8.55518 1412 ft 12 kts 155°
2026-05-05 18:55 47.45102 8.55575 1415 ft 14 kts 155°
2026-05-05 18:56 47.45024 8.55630 1412 ft 15 kts 155°